contact:dominique.lefevre@mio.osupytheas.fr, maurice.libes@osupytheas.fr, didier.mallarino@osupytheas.fr
Project:EMSO http://www.emso-fr.org/EMSO-France
Depth: 2436.0 m
Title:EMSO Ligure Ouest : Data MII capteur AQUADOPP
Date,Latitude,Longitude,X_East,Y_North,Z_Up,Amplitude_X,Amplitude_Y,Amplitude_Z,Batterie,SoundSpeed,Heading,Pitch,Roll,Pressure,TIS,Speed,Direction
, degrees North, degrees East, m.s-1, m.s-1,m.s-1, 1, 1, 1, Volt, m.s-1, degree, degree, degree, dbar, degree_C, m.s-1, degree
2022-07-19T00:04:03,42.805,6.029,0.018,-0.023,-0.001,104.0,103.0,101.0,13.3,1505.2,333.9,-0.8,1.8,2471.062,13.28,0.029,142.0
2022-07-19T00:07:03,42.805,6.029,0.019,0.001,-0.032,103.0,103.0,101.0,13.4,1505.2,327.1,-0.8,1.8,2471.054,13.28,0.019,87.0
2022-07-19T00:10:03,42.805,6.029,0.039,0.004,-0.042,103.0,104.0,100.0,13.3,1505.2,328.3,-0.8,1.8,2471.082,13.28,0.039,84.1
2022-07-19T00:13:03,42.805,6.029,0.022,0.028,0.028,103.0,103.0,101.0,13.4,1505.2,320.0,-0.8,1.8,2471.098,13.28,0.035,38.2
2022-07-19T00:16:03,42.805,6.029,0.025,-0.017,-0.023,104.0,103.0,101.0,13.4,1505.2,323.4,-0.7,1.8,2471.033,13.28,0.03,124.2
2022-07-19T00:19:03,42.805,6.029,0.039,0.0,0.01,103.0,101.0,102.0,13.3,1505.2,324.5,-0.7,1.8,2471.01,13.28,0.039,90.0
2022-07-19T00:22:03,42.805,6.029,0.038,0.012,-0.022,104.0,103.0,101.0,13.4,1505.2,322.6,-0.7,1.8,2471.018,13.28,0.039,72.5
2022-07-19T00:25:03,42.805,6.029,0.033,-0.001,-0.026,104.0,103.0,100.0,13.4,1505.2,329.6,-0.8,1.8,2471.031,13.28,0.033,91.7
2022-07-19T00:28:03,42.805,6.029,0.019,-0.003,-0.017,103.0,104.0,102.0,13.4,1505.2,329.0,-0.8,1.8,2471.012,13.28,0.019,99.0
2022-07-19T00:31:03,42.805,6.029,0.022,-0.006,-0.021,102.0,103.0,102.0,13.4,1505.2,328.4,-0.8,1.8,2471.022,13.28,0.022,105.3
2022-07-19T00:34:03,42.805,6.029,0.038,-0.012,0.008,104.0,103.0,101.0,13.4,1505.2,325.5,-0.7,1.8,2471.012,13.28,0.039,107.5
2022-07-19T00:37:03,42.805,6.029,0.028,0.006,-0.007,102.0,102.0,102.0,13.4,1505.2,327.2,-0.8,1.8,2471.013,13.28,0.028,77.9
2022-07-19T00:40:03,42.805,6.029,0.041,0.011,-0.017,104.0,103.0,101.0,13.3,1505.2,321.7,-0.7,1.8,2471.018,13.29,0.042,75.0
2022-07-19T00:43:03,42.805,6.029,0.043,-0.034,-0.025,103.0,105.0,100.0,13.4,1505.2,332.2,-0.8,1.8,2471.008,13.28,0.054,128.3
2022-07-19T00:46:03,42.805,6.029,0.034,0.001,-0.044,105.0,104.0,101.0,13.3,1505.2,332.6,-0.7,1.8,2471.01,13.28,0.034,88.3
2022-07-19T00:49:03,42.805,6.029,0.056,-0.003,-0.023,104.0,103.0,101.0,13.4,1505.2,329.5,-0.8,1.8,2470.999,13.28,0.056,93.1
2022-07-19T00:52:03,42.805,6.029,0.04,-0.007,-0.028,103.0,103.0,101.0,13.3,1505.2,327.6,-0.8,1.8,2470.977,13.28,0.04,99.9
2022-07-19T00:55:03,42.805,6.029,0.048,-0.009,-0.004,104.0,105.0,101.0,13.3,1505.2,326.0,-0.8,1.8,2470.998,13.28,0.048,100.6
2022-07-19T00:58:03,42.805,6.029,0.022,-0.023,-0.019,103.0,105.0,101.0,13.3,1505.2,327.6,-0.8,1.8,2471.028,13.28,0.031,136.3
2022-07-19T01:04:03,42.805,6.029,0.014,0.004,-0.021,104.0,105.0,101.0,13.4,1505.2,326.7,-0.8,1.8,2471.024,13.28,0.014,74.1
2022-07-19T01:07:03,42.805,6.029,0.049,-0.039,-0.017,105.0,104.0,103.0,13.3,1505.2,320.4,-0.8,1.8,2471.058,13.28,0.062,128.5
2022-07-19T01:10:04,42.805,6.029,0.02,0.003,-0.043,103.0,104.0,101.0,13.4,1505.2,329.2,-0.7,1.8,2471.032,13.28,0.02,81.5
2022-07-19T01:13:03,42.805,6.029,0.005,-0.006,-0.024,104.0,102.0,102.0,13.4,1505.2,329.5,-0.7,1.8,2471.023,13.28,0.007,140.2
2022-07-19T01:16:03,42.805,6.029,0.018,-0.019,-0.024,104.0,104.0,100.0,13.4,1505.2,334.1,-0.8,1.8,2471.022,13.28,0.026,136.5
2022-07-19T01:19:03,42.805,6.029,0.032,-0.029,0.001,102.0,106.0,101.0,13.4,1505.2,329.9,-0.8,1.8,2471.012,13.28,0.043,132.2
2022-07-19T01:22:03,42.805,6.029,0.036,-0.001,-0.013,103.0,104.0,101.0,13.4,1505.2,330.3,-0.7,1.8,2470.999,13.28,0.036,91.6
2022-07-19T01:25:03,42.805,6.029,0.027,-0.01,-0.038,104.0,102.0,101.0,13.4,1505.2,323.2,-0.8,1.8,2471.024,13.29,0.028,110.3
2022-07-19T01:28:03,42.805,6.029,0.027,-0.025,-0.023,104.0,104.0,101.0,13.4,1505.2,323.6,-0.8,1.8,2470.969,13.29,0.036,132.8
2022-07-19T01:31:03,42.805,6.029,0.008,-0.009,-0.009,104.0,103.0,100.0,13.4,1505.2,328.1,-0.8,1.8,2470.974,13.29,0.012,138.4
2022-07-19T01:34:03,42.805,6.029,0.035,-0.006,-0.01,104.0,103.0,100.0,13.4,1505.2,331.4,-0.8,1.8,2471.005,13.29,0.035,99.7
2022-07-19T01:37:03,42.805,6.029,0.034,0.013,0.018,104.0,103.0,102.0,13.4,1505.2,329.2,-0.7,1.8,2470.955,13.29,0.036,69.1
2022-07-19T01:40:03,42.805,6.029,0.019,-0.014,-0.046,104.0,103.0,101.0,13.3,1505.2,332.6,-0.7,1.8,2470.954,13.29,0.023,126.4
2022-07-19T01:43:03,42.805,6.029,0.03,-0.004,-0.022,103.0,106.0,100.0,13.3,1505.2,332.1,-0.8,1.8,2470.989,13.29,0.03,97.6
2022-07-19T01:46:03,42.805,6.029,0.037,-0.026,-0.011,104.0,104.0,100.0,13.4,1505.2,332.4,-0.8,1.8,2470.985,13.28,0.045,125.1
2022-07-19T01:49:03,42.805,6.029,0.036,-0.025,-0.031,103.0,103.0,101.0,13.4,1505.2,323.5,-0.8,1.8,2471.018,13.28,0.043,124.8
2022-07-19T01:52:03,42.805,6.029,0.03,-0.01,0.006,104.0,103.0,101.0,13.4,1505.2,325.8,-0.8,1.8,2470.953,13.28,0.031,108.4
2022-07-19T01:55:03,42.805,6.029,0.025,-0.013,-0.024,104.0,103.0,101.0,13.4,1505.2,321.9,-0.7,1.8,2470.975,13.29,0.028,117.5
2022-07-19T01:58:03,42.805,6.029,0.031,-0.011,0.014,103.0,104.0,101.0,13.4,1505.2,322.7,-0.7,1.8,2470.96,13.29,0.032,109.5
2022-07-19T02:04:03,42.805,6.029,0.014,-0.007,-0.023,104.0,103.0,102.0,13.3,1505.2,326.5,-0.7,1.9,2471.007,13.28,0.015,116.6
2022-07-19T02:07:03,42.805,6.029,0.02,-0.013,-0.008,104.0,103.0,100.0,13.4,1505.2,326.1,-0.8,1.8,2470.992,13.28,0.023,123.0
2022-07-19T02:10:03,42.805,6.029,0.034,-0.006,-0.014,105.0,103.0,101.0,13.4,1505.2,320.3,-0.7,1.8,2471.037,13.28,0.034,100.0
2022-07-19T02:13:03,42.805,6.029,0.018,0.001,-0.019,104.0,104.0,101.0,13.4,1505.2,333.1,-0.8,1.8,2470.985,13.28,0.018,86.8
2022-07-19T02:16:03,42.805,6.029,0.02,-0.004,-0.019,104.0,103.0,100.0,13.4,1505.2,322.3,-0.7,1.8,2470.986,13.28,0.02,101.3
2022-07-19T02:19:03,42.805,6.029,0.034,-0.007,-0.003,103.0,104.0,100.0,13.4,1505.2,328.9,-0.7,1.8,2470.983,13.28,0.034,101.6
2022-07-19T02:22:03,42.805,6.029,0.019,-0.015,-0.02,104.0,104.0,100.0,13.4,1505.2,323.9,-0.7,1.8,2470.986,13.28,0.024,128.3
2022-07-19T02:25:03,42.805,6.029,0.019,-0.001,-0.055,105.0,104.0,101.0,13.4,1505.2,324.3,-0.8,1.8,2470.967,13.29,0.019,93.0
2022-07-19T02:28:03,42.805,6.029,0.002,-0.012,-0.021,103.0,103.0,102.0,13.4,1505.2,323.5,-0.8,1.8,2470.991,13.29,0.012,170.5
2022-07-19T02:31:03,42.805,6.029,0.005,0.008,-0.034,104.0,102.0,101.0,13.4,1505.2,328.2,-0.7,1.8,2470.944,13.29,0.009,32.0
2022-07-19T02:34:03,42.805,6.029,0.028,-0.012,-0.025,105.0,102.0,101.0,13.3,1505.2,322.3,-0.8,1.8,2470.98,13.29,0.03,113.2
2022-07-19T02:37:03,42.805,6.029,0.028,0.014,-0.006,103.0,106.0,100.0,13.3,1505.2,320.3,-0.8,1.8,2470.973,13.29,0.031,63.4
2022-07-19T02:40:03,42.805,6.029,0.028,-0.001,-0.003,103.0,105.0,102.0,13.4,1505.2,330.1,-0.7,1.8,2470.997,13.29,0.028,92.0
2022-07-19T02:43:03,42.805,6.029,0.026,0.011,0.001,103.0,104.0,102.0,13.4,1505.2,332.9,-0.7,1.8,2470.931,13.29,0.028,67.1
2022-07-19T02:46:03,42.805,6.029,0.03,-0.022,-0.008,104.0,103.0,101.0,13.4,1505.2,321.7,-0.8,1.8,2470.928,13.29,0.037,126.3
2022-07-19T02:49:03,42.805,6.029,0.021,-0.004,-0.008,103.0,103.0,101.0,13.4,1505.2,321.3,-0.7,1.8,2471.013,13.29,0.021,100.8
2022-07-19T02:52:03,42.805,6.029,0.025,0.002,-0.029,103.0,104.0,101.0,13.3,1505.2,323.3,-0.8,1.8,2470.946,13.29,0.025,85.4
2022-07-19T02:55:03,42.805,6.029,0.021,-0.004,0.002,103.0,103.0,101.0,13.4,1505.2,320.7,-0.8,1.8,2470.945,13.29,0.021,100.8
2022-07-19T02:58:03,42.805,6.029,0.015,-0.003,-0.017,103.0,104.0,101.0,13.4,1505.2,332.9,-0.7,1.8,2470.929,13.29,0.015,101.3
2022-07-19T03:04:03,42.805,6.029,0.025,-0.009,-0.006,103.0,102.0,101.0,13.4,1505.2,327.7,-0.8,1.8,2471.015,13.28,0.026,109.8
2022-07-19T03:07:03,42.805,6.029,0.042,0.006,-0.038,104.0,103.0,101.0,13.3,1505.2,323.2,-0.8,1.8,2470.991,13.28,0.042,81.9
2022-07-19T03:10:03,42.805,6.029,0.027,-0.008,-0.036,103.0,106.0,101.0,13.3,1505.2,325.6,-0.7,1.8,2470.999,13.28,0.028,106.5
2022-07-19T03:13:03,42.805,6.029,0.023,0.008,-0.035,103.0,105.0,100.0,13.3,1505.2,321.9,-0.8,1.8,2470.966,13.28,0.024,70.8
2022-07-19T03:16:03,42.805,6.029,0.022,-0.017,-0.016,103.0,102.0,101.0,13.4,1505.2,328.2,-0.7,1.8,2470.94,13.28,0.027,127.7
2022-07-19T03:19:03,42.805,6.029,0.053,-0.027,-0.018,104.0,104.0,101.0,13.4,1505.2,327.1,-0.8,1.8,2470.951,13.28,0.059,117.0
2022-07-19T03:22:03,42.805,6.029,0.009,0.01,0.004,103.0,102.0,101.0,13.3,1505.2,321.0,-0.7,1.8,2470.934,13.28,0.013,42.0
2022-07-19T03:25:03,42.805,6.029,0.003,0.012,-0.031,103.0,103.0,101.0,13.4,1505.2,323.5,-0.8,1.8,2470.974,13.29,0.012,14.0
2022-07-19T03:28:03,42.805,6.029,0.016,0.0,0.031,104.0,105.0,100.0,13.4,1505.2,329.8,-0.8,1.8,2470.96,13.29,0.016,90.0
2022-07-19T03:31:03,42.805,6.029,0.038,-0.007,0.026,103.0,103.0,102.0,13.4,1505.2,320.3,-0.8,1.8,2470.907,13.29,0.038,100.4
2022-07-19T03:34:03,42.805,6.029,0.016,-0.008,-0.03,102.0,103.0,102.0,13.3,1505.2,323.6,-0.7,1.8,2470.93,13.29,0.017,116.6
2022-07-19T03:37:03,42.805,6.029,0.027,0.007,-0.011,104.0,103.0,101.0,13.4,1505.2,320.4,-0.8,1.9,2470.913,13.29,0.027,75.5
2022-07-19T03:40:03,42.805,6.029,0.032,-0.018,-0.043,103.0,103.0,102.0,13.3,1505.2,332.9,-0.8,1.8,2470.932,13.29,0.036,119.4
2022-07-19T03:43:03,42.805,6.029,0.038,0.017,0.011,103.0,105.0,101.0,13.4,1505.2,329.6,-0.7,1.8,2470.929,13.29,0.041,65.9
2022-07-19T03:46:03,42.805,6.029,0.019,0.008,0.017,103.0,103.0,101.0,13.3,1505.2,322.0,-0.7,1.8,2470.935,13.29,0.02,67.2
2022-07-19T03:49:03,42.805,6.029,0.021,0.005,-0.039,103.0,103.0,101.0,13.4,1505.2,329.0,-0.8,1.8,2470.913,13.29,0.021,76.6
2022-07-19T03:52:03,42.805,6.029,0.021,-0.02,-0.029,103.0,104.0,103.0,13.4,1505.2,323.4,-0.8,1.8,2470.938,13.29,0.028,133.6
2022-07-19T03:55:03,42.805,6.029,0.021,-0.001,-0.026,104.0,104.0,101.0,13.4,1505.2,322.1,-0.8,1.8,2470.853,13.29,0.021,92.7
2022-07-19T03:58:03,42.805,6.029,0.034,0.01,-0.001,104.0,104.0,102.0,13.3,1505.2,321.8,-0.8,1.8,2470.91,13.29,0.035,73.6
2022-07-19T04:04:03,42.805,6.029,0.019,-0.005,-0.013,103.0,103.0,101.0,13.3,1505.2,328.5,-0.7,1.8,2470.935,13.28,0.019,104.7
2022-07-19T04:07:03,42.805,6.029,0.027,0.009,-0.009,103.0,104.0,101.0,13.3,1505.2,320.9,-0.8,1.8,2470.956,13.28,0.028,71.6
2022-07-19T04:10:03,42.805,6.029,0.038,0.0,-0.024,103.0,103.0,102.0,13.4,1505.2,326.1,-0.8,1.8,2470.942,13.28,0.038,90.0
2022-07-19T04:13:03,42.805,6.029,0.029,0.007,0.0,104.0,104.0,101.0,13.3,1505.2,327.3,-0.8,1.8,2470.959,13.28,0.029,76.4
2022-07-19T04:16:03,42.805,6.029,0.029,0.0,-0.018,103.0,104.0,100.0,13.3,1505.2,327.8,-0.8,1.8,2470.937,13.28,0.028,90.0
2022-07-19T04:19:03,42.805,6.029,0.035,0.0,0.006,103.0,104.0,101.0,13.4,1505.2,327.0,-0.7,1.8,2470.918,13.28,0.035,90.0
2022-07-19T04:22:03,42.805,6.029,0.015,0.0,-0.016,104.0,102.0,101.0,13.4,1505.2,324.7,-0.8,1.8,2470.93,13.28,0.015,90.0
2022-07-19T04:25:03,42.805,6.029,0.028,-0.005,-0.005,103.0,106.0,101.0,13.4,1505.2,321.6,-0.7,1.8,2470.883,13.28,0.028,100.1
2022-07-19T04:28:03,42.805,6.029,0.023,-0.006,-0.036,104.0,104.0,101.0,13.3,1505.2,322.8,-0.7,1.8,2470.903,13.29,0.023,104.6
2022-07-19T04:31:03,42.805,6.029,0.031,-0.008,-0.02,104.0,103.0,101.0,13.3,1505.2,334.1,-0.8,1.8,2470.867,13.29,0.032,104.5
2022-07-19T04:34:03,42.805,6.029,0.006,0.009,-0.004,103.0,104.0,101.0,13.4,1505.2,333.9,-0.7,1.8,2470.903,13.29,0.01,33.7
2022-07-19T04:37:03,42.805,6.029,0.016,0.0,-0.032,103.0,103.0,102.0,13.4,1505.2,330.3,-0.8,1.8,2470.925,13.29,0.016,90.0
2022-07-19T04:40:03,42.805,6.029,0.024,0.004,-0.018,103.0,104.0,101.0,13.4,1505.2,326.3,-0.7,1.8,2470.928,13.29,0.024,80.5
2022-07-19T04:43:03,42.805,6.029,0.032,-0.006,-0.026,103.0,105.0,102.0,13.3,1505.2,328.8,-0.8,1.8,2470.882,13.29,0.032,100.6
2022-07-19T04:46:03,42.805,6.029,0.025,0.0,-0.055,104.0,103.0,101.0,13.4,1505.2,321.4,-0.8,1.9,2470.898,13.29,0.025,90.0
2022-07-19T04:49:03,42.805,6.029,0.033,-0.006,-0.008,105.0,104.0,101.0,13.3,1505.2,319.7,-0.7,1.8,2470.851,13.29,0.033,100.3
2022-07-19T04:52:03,42.805,6.029,0.034,0.01,-0.028,104.0,104.0,102.0,13.4,1505.2,319.2,-0.7,1.8,2470.9,13.29,0.035,73.6
2022-07-19T04:55:03,42.805,6.029,0.033,0.004,0.012,103.0,104.0,101.0,13.4,1505.2,320.7,-0.7,1.8,2470.864,13.29,0.033,83.1
2022-07-19T04:58:03,42.805,6.029,0.013,0.009,0.007,104.0,104.0,101.0,13.4,1505.2,321.7,-0.8,1.8,2470.891,13.29,0.015,55.3
2022-07-19T05:04:03,42.805,6.029,0.025,0.014,-0.005,103.0,104.0,101.0,13.4,1505.2,322.1,-0.8,1.8,2470.91,13.28,0.028,60.7
2022-07-19T05:07:03,42.805,6.029,0.036,0.004,-0.005,103.0,103.0,101.0,13.4,1505.2,322.3,-0.8,1.8,2470.894,13.28,0.036,83.7
2022-07-19T05:10:03,42.805,6.029,0.051,0.004,0.015,102.0,103.0,102.0,13.3,1505.2,326.5,-0.7,1.8,2470.895,13.28,0.051,85.5
2022-07-19T05:13:03,42.805,6.029,0.011,-0.006,-0.036,102.0,105.0,101.0,13.4,1505.2,331.9,-0.8,1.8,2470.913,13.28,0.012,118.6
2022-07-19T05:16:03,42.805,6.029,0.034,0.014,-0.004,104.0,103.0,101.0,13.4,1505.2,325.1,-0.7,1.8,2470.868,13.28,0.036,67.6
2022-07-19T05:19:03,42.805,6.029,0.012,0.005,-0.027,102.0,103.0,102.0,13.4,1505.2,325.4,-0.8,1.8,2470.891,13.28,0.013,67.4
2022-07-19T05:22:03,42.805,6.029,0.039,-0.009,-0.009,102.0,105.0,100.0,13.4,1505.2,329.5,-0.7,1.8,2470.91,13.28,0.04,103.0
2022-07-19T05:25:03,42.805,6.029,0.016,0.008,-0.028,103.0,103.0,101.0,13.3,1505.2,322.0,-0.7,1.8,2470.867,13.28,0.017,63.4
2022-07-19T05:28:03,42.805,6.029,0.053,0.006,0.022,103.0,103.0,101.0,13.4,1505.2,330.6,-0.8,1.8,2470.888,13.28,0.053,83.5
2022-07-19T05:31:03,42.805,6.029,0.048,-0.001,-0.019,103.0,103.0,102.0,13.4,1505.2,329.2,-0.8,1.8,2470.877,13.28,0.048,91.2
2022-07-19T05:34:03,42.805,6.029,0.007,-0.022,-0.027,104.0,102.0,101.0,13.4,1505.2,330.8,-0.7,1.8,2470.875,13.28,0.023,162.4
2022-07-19T05:37:03,42.805,6.029,0.025,0.01,-0.013,103.0,103.0,101.0,13.4,1505.2,324.2,-0.7,1.8,2470.864,13.28,0.026,68.2
2022-07-19T05:40:03,42.805,6.029,0.041,0.015,-0.02,103.0,105.0,101.0,13.3,1505.2,320.7,-0.8,1.8,2470.862,13.28,0.043,69.9
2022-07-19T05:43:03,42.805,6.029,0.032,-0.015,-0.019,103.0,104.0,101.0,13.3,1505.2,333.1,-0.7,1.8,2470.868,13.28,0.035,115.1
2022-07-19T05:46:03,42.805,6.029,0.025,-0.007,-0.017,104.0,104.0,101.0,13.3,1505.2,327.2,-0.7,1.8,2470.855,13.29,0.025,105.6
2022-07-19T05:49:03,42.805,6.029,0.016,-0.001,-0.021,104.0,103.0,102.0,13.4,1505.2,327.2,-0.8,1.8,2470.843,13.29,0.016,93.6
2022-07-19T05:52:03,42.805,6.029,0.046,-0.004,0.005,104.0,103.0,102.0,13.4,1505.2,329.1,-0.8,1.8,2470.849,13.29,0.046,95.0
2022-07-19T05:55:03,42.805,6.029,0.048,0.0,-0.009,102.0,104.0,102.0,13.4,1505.2,331.5,-0.8,1.8,2470.877,13.28,0.048,90.0
2022-07-19T05:58:03,42.805,6.029,0.043,0.012,-0.035,103.0,104.0,102.0,13.4,1505.2,325.2,-0.8,1.8,2470.874,13.28,0.044,74.4
2022-07-19T06:04:03,42.805,6.029,0.037,0.03,-0.005,104.0,104.0,102.0,13.4,1505.2,328.9,-0.8,1.8,2470.911,13.28,0.047,51.0
2022-07-19T06:07:03,42.805,6.029,0.022,0.0,-0.043,104.0,103.0,102.0,13.4,1505.2,326.1,-0.8,1.8,2470.903,13.28,0.022,90.0
2022-07-19T06:10:03,42.805,6.029,0.04,0.003,-0.011,104.0,104.0,101.0,13.4,1505.2,333.1,-0.8,1.8,2470.891,13.28,0.04,85.7
2022-07-19T06:13:03,42.805,6.029,0.051,-0.014,-0.015,104.0,104.0,102.0,13.4,1505.2,327.6,-0.8,1.8,2470.882,13.28,0.052,105.3
2022-07-19T06:16:03,42.805,6.029,0.045,0.001,-0.025,104.0,104.0,101.0,13.3,1505.2,331.3,-0.8,1.8,2470.868,13.28,0.045,88.7
2022-07-19T06:19:03,42.805,6.029,0.033,-0.031,-0.064,104.0,104.0,101.0,13.3,1505.2,330.5,-0.7,1.8,2470.884,13.28,0.045,133.2
2022-07-19T06:22:03,42.805,6.029,0.043,-0.003,-0.026,103.0,105.0,102.0,13.4,1505.2,321.7,-0.7,1.8,2470.891,13.28,0.043,94.0
2022-07-19T06:25:03,42.805,6.029,0.031,0.006,-0.022,105.0,103.0,103.0,13.3,1505.2,319.5,-0.7,1.8,2470.837,13.28,0.031,79.0
2022-07-19T06:28:03,42.805,6.029,0.028,0.011,0.003,103.0,104.0,101.0,13.4,1505.2,332.2,-0.8,1.8,2470.872,13.28,0.03,68.6
2022-07-19T06:31:03,42.805,6.029,0.041,-0.007,-0.042,105.0,105.0,101.0,13.4,1505.2,333.9,-0.8,1.8,2470.83,13.28,0.041,99.7
2022-07-19T06:34:03,42.805,6.029,0.032,-0.007,0.026,104.0,105.0,101.0,13.3,1505.2,323.3,-0.7,1.9,2470.902,13.28,0.032,102.3
2022-07-19T06:37:03,42.805,6.029,0.042,-0.006,-0.037,104.0,104.0,103.0,13.4,1505.2,325.8,-0.7,1.8,2470.876,13.28,0.042,98.1
2022-07-19T06:40:03,42.805,6.029,0.023,0.007,-0.024,104.0,104.0,102.0,13.3,1505.2,324.4,-0.8,1.8,2470.854,13.28,0.024,73.1
2022-07-19T06:43:03,42.805,6.029,0.022,-0.011,-0.008,104.0,104.0,102.0,13.4,1505.2,334.4,-0.7,1.8,2470.861,13.28,0.024,116.6
2022-07-19T06:46:03,42.805,6.029,0.04,0.008,-0.023,104.0,104.0,101.0,13.3,1505.2,320.4,-0.8,1.8,2470.861,13.28,0.04,78.7
2022-07-19T06:49:03,42.805,6.029,0.037,0.009,-0.014,104.0,104.0,102.0,13.4,1505.2,328.2,-0.8,1.8,2470.861,13.28,0.038,76.3
2022-07-19T06:52:03,42.805,6.029,0.033,0.0,-0.007,105.0,104.0,102.0,13.4,1505.2,326.4,-0.7,1.9,2470.853,13.28,0.033,90.0
2022-07-19T06:55:03,42.805,6.029,0.033,-0.008,-0.025,103.0,105.0,102.0,13.3,1505.2,325.8,-0.7,1.8,2470.871,13.28,0.033,103.6
2022-07-19T06:58:03,42.805,6.029,0.06,-0.01,-0.015,103.0,105.0,102.0,13.4,1505.2,324.3,-0.8,1.8,2470.869,13.28,0.06,99.5
2022-07-19T07:04:03,42.805,6.029,0.036,-0.007,-0.03,103.0,105.0,102.0,13.4,1505.2,320.6,-0.8,1.8,2470.904,13.28,0.036,101.0
2022-07-19T07:07:03,42.805,6.029,0.049,0.002,-0.012,103.0,105.0,101.0,13.4,1505.2,328.6,-0.8,1.8,2470.91,13.28,0.049,87.7
2022-07-19T07:10:03,42.805,6.029,0.044,-0.019,-0.014,104.0,104.0,101.0,13.3,1505.2,329.4,-0.7,1.8,2470.948,13.28,0.047,113.4
2022-07-19T07:13:03,42.805,6.029,0.048,0.011,-0.006,105.0,106.0,102.0,13.4,1505.2,319.7,-0.7,1.8,2470.878,13.28,0.049,77.1
2022-07-19T07:16:03,42.805,6.029,0.043,-0.012,-0.042,104.0,103.0,101.0,13.4,1505.2,325.4,-0.8,1.8,2470.864,13.28,0.044,105.6
2022-07-19T07:19:03,42.805,6.029,0.046,0.006,0.0,105.0,102.0,101.0,13.4,1505.2,328.4,-0.8,1.8,2470.85,13.28,0.046,82.6
2022-07-19T07:22:03,42.805,6.029,0.025,-0.025,-0.034,104.0,104.0,101.0,13.4,1505.2,328.6,-0.8,1.8,2470.862,13.28,0.035,135.0
2022-07-19T07:25:03,42.805,6.029,0.031,-0.006,-0.023,104.0,103.0,102.0,13.4,1505.2,323.0,-0.8,1.8,2470.868,13.28,0.031,101.0
2022-07-19T07:28:03,42.805,6.029,0.034,-0.012,-0.003,105.0,104.0,101.0,13.4,1505.2,321.7,-0.7,1.8,2470.895,13.28,0.036,109.4
2022-07-19T07:31:03,42.805,6.029,0.04,0.001,0.014,104.0,103.0,101.0,13.4,1505.2,321.1,-0.8,1.9,2470.877,13.28,0.04,88.6
2022-07-19T07:34:03,42.805,6.029,0.047,0.011,0.011,105.0,105.0,101.0,13.4,1505.2,318.8,-0.7,1.8,2470.842,13.28,0.048,76.8
2022-07-19T07:37:03,42.805,6.029,0.032,0.002,-0.003,104.0,104.0,101.0,13.4,1505.2,320.7,-0.8,1.8,2470.894,13.28,0.032,86.4
2022-07-19T07:40:03,42.805,6.029,0.048,-0.011,-0.033,104.0,105.0,102.0,13.4,1505.2,324.0,-0.8,1.8,2470.863,13.28,0.049,102.9
2022-07-19T07:43:03,42.805,6.029,0.05,0.0,-0.042,104.0,104.0,101.0,13.3,1505.2,323.0,-0.8,1.8,2470.856,13.28,0.05,90.0
2022-07-19T07:46:03,42.805,6.029,0.059,-0.018,-0.013,105.0,104.0,101.0,13.4,1505.2,324.2,-0.8,1.8,2470.853,13.28,0.061,107.0
2022-07-19T07:49:03,42.805,6.029,0.04,-0.003,-0.015,103.0,105.0,100.0,13.3,1505.2,319.3,-0.8,1.8,2470.902,13.28,0.04,94.3
2022-07-19T07:52:03,42.805,6.029,0.045,0.004,-0.038,104.0,104.0,101.0,13.4,1505.2,330.6,-0.8,1.8,2470.864,13.28,0.045,84.9
2022-07-19T07:55:03,42.805,6.029,0.032,-0.007,0.0,103.0,103.0,102.0,13.4,1505.2,321.9,-0.8,1.8,2470.882,13.28,0.032,102.3
2022-07-19T07:58:03,42.805,6.029,0.034,-0.001,-0.002,104.0,104.0,101.0,13.4,1505.2,332.4,-0.7,1.8,2470.908,13.28,0.034,91.7
2022-07-19T08:04:03,42.805,6.029,0.052,-0.015,-0.027,104.0,104.0,102.0,13.3,1505.2,320.4,-0.7,1.8,2470.92,13.28,0.054,106.1
2022-07-19T08:07:03,42.805,6.029,0.026,-0.007,-0.005,104.0,103.0,101.0,13.3,1505.2,323.1,-0.8,1.8,2470.92,13.28,0.026,105.1
2022-07-19T08:10:03,42.805,6.029,0.044,-0.007,-0.026,104.0,104.0,102.0,13.3,1505.2,323.3,-0.8,1.8,2470.932,13.28,0.044,99.0
2022-07-19T08:13:03,42.805,6.029,0.044,-0.016,-0.029,104.0,104.0,101.0,13.3,1505.2,331.4,-0.8,1.8,2470.9,13.28,0.046,110.0
2022-07-19T08:16:03,42.805,6.029,0.027,0.006,-0.016,105.0,104.0,101.0,13.3,1505.2,321.4,-0.7,1.8,2470.862,13.28,0.027,77.5
2022-07-19T08:19:03,42.805,6.029,0.067,-0.007,-0.005,104.0,104.0,102.0,13.3,1505.2,328.6,-0.8,1.8,2470.894,13.28,0.067,96.0
2022-07-19T08:22:03,42.805,6.029,0.03,-0.011,-0.026,105.0,106.0,100.0,13.4,1505.2,325.7,-0.8,1.8,2470.91,13.28,0.031,110.1
2022-07-19T08:25:03,42.805,6.029,0.059,-0.005,0.014,104.0,104.0,103.0,13.4,1505.2,328.4,-0.7,1.8,2470.894,13.28,0.059,94.8
2022-07-19T08:28:03,42.805,6.029,0.037,-0.017,0.013,104.0,104.0,102.0,13.4,1505.2,325.0,-0.8,1.8,2470.905,13.28,0.04,114.7
2022-07-19T08:31:03,42.805,6.029,0.014,0.008,-0.018,103.0,104.0,102.0,13.3,1505.2,326.4,-0.8,1.8,2470.907,13.28,0.016,60.3
2022-07-19T08:34:03,42.805,6.029,0.036,-0.011,-0.013,104.0,103.0,102.0,13.4,1505.2,329.2,-0.7,1.8,2470.918,13.28,0.037,107.0
2022-07-19T08:37:03,42.805,6.029,0.044,-0.032,-0.004,104.0,104.0,101.0,13.4,1505.2,326.5,-0.8,1.8,2470.859,13.28,0.054,126.0
2022-07-19T08:40:03,42.805,6.029,0.017,-0.004,-0.001,104.0,103.0,100.0,13.4,1505.2,325.3,-0.8,1.8,2470.911,13.28,0.017,103.2
2022-07-19T08:43:03,42.805,6.029,0.029,-0.008,-0.009,102.0,104.0,100.0,13.3,1505.2,326.7,-0.8,1.8,2470.938,13.28,0.03,105.4
2022-07-19T08:46:03,42.805,6.029,0.035,-0.011,-0.039,103.0,103.0,101.0,13.4,1505.2,331.5,-0.8,1.8,2470.913,13.28,0.036,107.4
2022-07-19T08:49:03,42.805,6.029,0.059,-0.017,-0.022,105.0,103.0,100.0,13.4,1505.2,328.3,-0.8,1.8,2470.9,13.28,0.061,106.1
2022-07-19T08:52:03,42.805,6.029,0.033,-0.013,-0.055,103.0,103.0,102.0,13.4,1505.2,329.9,-0.8,1.8,2470.965,13.28,0.035,111.5
2022-07-19T08:55:03,42.805,6.029,0.06,-0.019,-0.005,103.0,103.0,101.0,13.3,1505.2,320.7,-0.8,1.8,2470.928,13.28,0.062,107.6
2022-07-19T08:58:03,42.805,6.029,0.036,-0.005,-0.02,102.0,104.0,100.0,13.3,1505.2,323.8,-0.7,1.8,2470.915,13.28,0.036,97.9
2022-07-19T09:04:03,42.805,6.029,0.017,-0.003,-0.027,103.0,103.0,100.0,13.4,1505.2,328.7,-0.8,1.9,2470.948,13.28,0.017,100.0
2022-07-19T09:07:03,42.805,6.029,0.052,-0.021,-0.007,102.0,104.0,101.0,13.4,1505.2,325.7,-0.8,1.8,2470.956,13.28,0.056,112.0
2022-07-19T09:10:03,42.805,6.029,0.01,-0.003,-0.011,102.0,102.0,100.0,13.4,1505.2,327.3,-0.8,1.8,2470.968,13.28,0.01,106.7
2022-07-19T09:13:03,42.805,6.029,0.045,-0.004,0.01,102.0,104.0,101.0,13.4,1505.2,326.3,-0.8,1.8,2470.94,13.28,0.045,95.1
2022-07-19T09:16:03,42.805,6.029,0.056,-0.009,-0.02,103.0,104.0,101.0,13.4,1505.2,329.1,-0.7,1.9,2470.928,13.28,0.056,99.1
2022-07-19T09:19:03,42.805,6.029,0.039,0.002,-0.001,103.0,103.0,101.0,13.3,1505.2,327.5,-0.7,1.9,2470.954,13.28,0.039,87.1
2022-07-19T09:22:03,42.805,6.029,0.043,-0.003,0.002,104.0,103.0,100.0,13.4,1505.2,326.3,-0.8,1.8,2470.897,13.28,0.043,94.0
2022-07-19T09:25:03,42.805,6.029,0.025,-0.009,0.008,103.0,103.0,101.0,13.3,1505.2,330.4,-0.8,1.8,2470.936,13.28,0.026,109.8
2022-07-19T09:28:03,42.805,6.029,0.044,0.006,-0.01,103.0,103.0,100.0,13.3,1505.2,330.8,-0.7,1.8,2470.944,13.28,0.044,82.2
2022-07-19T09:31:03,42.805,6.029,0.057,-0.024,-0.021,103.0,104.0,100.0,13.4,1505.2,327.2,-0.7,1.8,2470.937,13.28,0.061,112.8
2022-07-19T09:34:03,42.805,6.029,0.03,-0.02,0.016,103.0,102.0,100.0,13.3,1505.2,326.7,-0.8,1.8,2470.921,13.28,0.036,123.7
2022-07-19T09:37:03,42.805,6.029,0.05,-0.013,-0.009,103.0,103.0,101.0,13.4,1505.2,332.4,-0.8,1.8,2470.942,13.28,0.051,104.6
2022-07-19T09:40:03,42.805,6.029,0.035,-0.006,-0.006,103.0,103.0,100.0,13.4,1505.2,324.2,-0.8,1.8,2470.948,13.28,0.035,99.7
2022-07-19T09:43:03,42.805,6.029,0.055,-0.019,-0.008,103.0,102.0,101.0,13.3,1505.2,322.6,-0.8,1.8,2470.952,13.28,0.058,109.1
2022-07-19T09:46:03,42.805,6.029,0.061,-0.02,-0.01,103.0,102.0,100.0,13.4,1505.2,321.8,-0.7,1.8,2470.916,13.28,0.064,108.1
2022-07-19T09:49:03,42.805,6.029,0.038,-0.012,-0.036,102.0,103.0,101.0,13.3,1505.2,323.5,-0.7,1.8,2470.988,13.28,0.039,107.5
2022-07-19T09:52:03,42.805,6.029,0.065,-0.002,-0.012,103.0,103.0,101.0,13.4,1505.2,326.4,-0.8,1.8,2470.917,13.28,0.065,91.8
2022-07-19T09:55:03,42.805,6.029,0.043,0.001,-0.021,103.0,103.0,101.0,13.4,1505.2,323.9,-0.8,1.8,2470.961,13.28,0.043,88.7
2022-07-19T09:58:03,42.805,6.029,0.052,-0.004,0.019,102.0,103.0,101.0,13.4,1505.2,321.8,-0.8,1.8,2470.957,13.28,0.052,94.4